Tracking 30995 objects as of 6-Jul-2025
HD Live streaming from Space Station
objects crossing your sky now

STARLINK-31848

Track STARLINK-31848 now!
10-day predictions
STARLINK-31848 is classified as:


NORAD ID: 59784
Int'l Code: 2024-093C
Perigee: 489.3 km
Apogee: 491.1 km
Inclination: 43.0 °
Period: 94.3 minutes
Semi major axis: 6861 km
RCS: Unknown
Launch date: May 18, 2024
Source: United States (US)
Launch site: AIR FORCE EASTERN TEST RANGE (AFETR)
Your satellite tracking list
Your tracking list is empty




NASA's NSSDC Master Catalog

Two Line Element Set (TLE):
1 59784U 24093C   25186.25404575  .00000154  00000-0  15104-4 0  9990
2 59784  43.0020 162.8003 0001352 291.1061  68.9646 15.27582237 64893
Source of the keplerian elements: AFSPC